EST,Max TemperatureF,Mean TemperatureF,Min TemperatureF,Max Dew PointF,MeanDew PointF,Min DewpointF,Max Humidity, Mean Humidity, Min Humidity, Max Sea Level PressureIn, Mean Sea Level PressureIn, Min Sea Level PressureIn, Max VisibilityMiles, Mean VisibilityMiles, Min VisibilityMiles, Max Wind SpeedMPH, Mean Wind SpeedMPH, Max Gust SpeedMPH,PrecipitationIn, CloudCover, Events, WindDirDegrees
2011-12-1,42,32,23,25,19,7,93,61,30,30.32,30.24,30.10,10,10,10,26,15,26,0.00,0,,288
2011-12-2,44,38,33,21,18,14,56,45,34,30.49,30.35,30.29,10,10,10,18,13,22,0.00,0,,280
2011-12-3,39,36,32,28,26,23,81,69,56,30.55,30.52,30.49,10,10,10,13,6,,0.00,0,,173
2011-12-4,48,40,32,36,30,25,87,72,49,30.47,30.42,30.36,10,10,10,15,9,18,0.00,0,,184
2011-12-5,50,46,41,48,43,37,100,90,76,30.37,30.29,30.20,10,8,0,16,11,23,0.04,6,Rain,175
2011-12-6,53,52,50,54,53,50,100,100,100,30.18,30.10,30.02,10,5,0,17,13,28,0.43,8,Fog-Rain,208
2011-12-7,53,40,26,52,42,27,100,100,94,30.01,29.80,29.61,10,2,0,29,11,46,1.81,8,Rain-Snow,293
2011-12-8,33,25,17,25,18,9,100,78,35,30.24,30.12,29.85,10,10,2,13,9,,0.00,1,Snow,252
2011-12-9,37,32,26,27,22,16,75,66,51,30.23,30.20,30.17,10,10,10,21,13,25,0.00,0,,244
2011-12-10,30,26,23,25,19,10,100,75,47,30.34,30.26,30.18,10,10,5,18,12,25,0.00,2,,295
2011-12-11,32,24,17,19,11,-11,74,58,20,30.52,30.45,30.39,10,10,10,13,6,,0.00,0,,177
2011-12-12,39,31,23,28,15,-6,74,47,18,30.46,30.42,30.39,10,10,10,17,10,23,0.00,0,,237
2011-12-13,46,42,37,37,36,34,100,83,66,30.44,30.40,30.38,10,10,10,17,13,21,0.00,5,,274
2011-12-14,48,42,37,43,40,34,100,89,70,30.39,30.34,30.27,10,10,5,10,8,,0.00,6,,244
2011-12-15,57,49,41,52,45,39,100,86,63,30.24,30.12,30.04,10,8,0,28,15,39,0.02,4,Rain,245
2011-12-16,48,38,28,46,30,21,100,84,60,30.20,30.12,30.04,10,9,5,26,17,39,0.02,6,Rain-Snow,279
2011-12-17,28,24,21,28,20,18,100,85,69,30.13,30.09,30.07,10,10,7,20,15,24,0.00,5,,286
2011-12-18,30,26,21,21,20,19,100,81,64,30.22,30.15,30.07,10,10,5,21,14,29,0.00,4,Snow,276
2011-12-19,44,36,28,23,20,18,74,55,36,30.21,30.17,30.12,10,10,10,21,15,28,0.00,2,,264
2011-12-20,48,44,39,43,31,19,87,63,39,30.17,30.13,30.10,10,10,10,26,16,34,0.00,3,,255
2011-12-21,53,50,44,52,48,43,100,94,82,30.11,29.99,29.90,10,8,0,26,14,34,0.38,6,Fog-Rain,231
2011-12-22,55,48,41,48,42,39,100,86,58,30.15,30.07,29.95,10,9,0,17,11,22,0.22,2,Rain,231
2011-12-23,53,42,30,54,34,27,100,94,81,30.20,30.08,29.84,10,9,0,28,17,37,0.16,8,Fog-Rain,282
2011-12-24,30,30,30,28,28,28,93,93,93,30.36,30.29,30.18,10,10,10,15,14,20,0.00,8,,277
2011-12-25,,,,,,,,,,30.29,30.17,30.04,,,,,,,0.00,,,-1
2011-12-26,,,,,,,,,,30.31,30.21,30.06,,,,,,,0.00,,,-1
2011-12-27,,,,,,,,,,30.12,29.71,29.45,,,,,,,0.00,,,-1
2011-12-28,28,26,24,19,18,16,80,72,59,29.90,29.73,29.53,10,10,10,31,23,40,0.00,1,,283
2011-12-29,37,29,21,27,22,19,100,77,48,29.98,29.92,29.87,10,10,10,20,14,26,0.00,3,,248
2011-12-30,48,40,33,39,29,21,87,65,50,30.03,29.92,29.85,10,10,10,18,15,26,0.00,2,,221
2011-12-31,42,38,35,39,35,32,100,89,81,30.12,29.97,29.83,10,10,0,25,15,38,0.06,6,Rain-Thunderstorm,272